Regional Weather Roundup
Issued by NWS

Home | Current Version | Previous Version | Text Only | Print | Product List | Glossary On
Versions: 1 2 3 4 5 6 7 8 9 10 11 12 13 14 15 16 17 18 19 20 21 22 23 24 25 26 27 28 29 30 31 32 33 34 35 36 37 38 39 40 41 42 43 44 45 46 47 48 49 50
610
ASUS44 KJAN 012010
RWRMS

MISSISSIPPI HOURLY WEATHER ROUNDUP
NATIONAL WEATHER SERVICE JACKSON MS
300 PM CDT SUN MAY 01 2016

NOTE: "FAIR: INDICATES FEW OR NO CLOUDS BELOW 12,000 FEET WITH NO
SIGNIFICANT WEATHER AND/OR OBSTRUCTIONS TO VISIBILITY.

MSZ001>002-007>008-010>013-018>021-025>028-034>036-012100-
NORTHWEST MISSISSIPPI

CITY           SKY/WX    TMP DP  RH WIND       PRES   REMARKS
BATESVILLE     FAIR      79  68  69 SE8       29.94S
CLEVELAND      FAIR      80  73  79 E3        29.90F
GREENWOOD      MOSUNNY   79  67  66 S12       29.92F
GREENVILLE     MOSUNNY   82  71  69 SE8       29.90F
OLIVE BRANCH   PTSUNNY   75  73  94 S12       29.94S
OXFORD         PTSUNNY   77  66  69 SE10      29.96S
TUNICA         LGT RAIN  73  68  83 W5        29.96R
WINONA         FAIR      75  68  77 S9        29.94F
$$

MSZ003>006-009-014>017-022>024-029>033-037>039-012100-
NORTHEAST MISSISSIPPI

CITY           SKY/WX    TMP DP  RH WIND       PRES   REMARKS
COLUMBUS AFB   MOSUNNY   68  66  95 E8        29.97F
CORINTH        MOCLDY    81  66  61 S8        29.94F
GOLDN TRIANGLE PTSUNNY   66  64  94 SE12      29.98F
STARKVILLE     FAIR      68  66  94 SE6       29.97F
TUPELO         CLOUDY    75  66  73 SE10      29.97F
$$

MSZ040-058-012100-
CENTRAL MISSISSIPPI

CITY           SKY/WX    TMP DP  RH WIND       PRES   REMARKS
JACKSON INTL   PTSUNNY   78  70  76 SE8       29.93F
JACKSON HAWKNS PTSUNNY   78  70  76 MISG      29.93F
MADISON        FAIR      73  70  88 NE3       29.93F
MERIDIAN KEY   CLOUDY    71  66  84 CALM      29.97F
MERIDIAN NAS   LGT RAIN  70  66  87 CALM      29.96F
VICKSBURG TVR  SUNNY     83  66  56 SE8       29.89F
VICKSBURG VKS  PTCLDY    82  68  61 SE5       29.90F
$$

MSZ059>079-012100-
SOUTH MISSISSIPPI

CITY           SKY/WX    TMP DP  RH WIND       PRES   REMARKS
BROOKHAVEN     FAIR     N/A N/A N/A SE8       29.94R
COLUMBIA       FAIR      73  68  83 SE8       29.97R
HATTIESBURG    CLOUDY    72  65  78 S12       29.94F
MCCOMB         CLOUDY    75  69  81 SE9       29.92F
NATCHEZ        CLOUDY    79  66  65 SE8       29.90S
PINE BELT      CLOUDY    73  70  88 S6        29.95F
$$

MSZ080>082-012100-
COASTAL MISSISSIPPI

CITY           SKY/WX    TMP DP  RH WIND       PRES   REMARKS
BAY ST LOUIS   CLOUDY    70  63  78 SE8       30.00F
BILOXI         TSTM      70  70 100 VRB6      30.02S FOG
PASCAGOULA     LGT RAIN  75  74  96 CALM      30.02R
GULFPORT       RAIN      70  67  90 E8        30.00F FOG
$$




USA.gov is the U.S. government's official web portal to all federal, state and local government web resources and services.